Weather History for KLRU - April, 2013

Change the Weather History Date:

Tuesday, April 30, 2013

  Actual Average (KDMN) Record (KDMN)
Temperature  
Mean Temperature 72 °F 65 °F  
Max Temperature 89 °F 83 °F - ()
Min Temperature 56 °F 47 °F - ()
Cooling Degree Days 8    
Growing Degree Days 22 (Base 50)    
Moisture  
Dew Point 12 °F    
Average Humidity 10    
Maximum Humidity 16    
Minimum Humidity 6    
Precipitation  
Precipitation 0.00 in 0.01 in - ()
Month to date precipitation 0.36  
Year to date precipitation 1.98  
Sea Level Pressure  
Sea Level Pressure 29.85 in    
Wind  
Wind Speed 11 mph (West)    
Max Wind Speed 24 mph    
Max Gust Speed 34 mph    
Visibility 10 miles    
Events      
T = Trace of Precipitation, MM = Missing Value Source: NWS Daily Summary

Daily Weather History Graph

Daily Weather History Graph

Search for Another Location

Airport or City:

Trip Planner

Search our weather history database for the weather conditions in past years. The results will help you decide how hot, cold, wet, or windy it might be!

Date:

Astronomy

Apr. 30, 2013 Rise Set
Actual Time 6:21 AM MDT 7:48 PM MDT
Civil Twilight 5:55 AM MDT 8:14 PM MDT
Nautical Twilight 5:24 AM MDT 8:45 PM MDT
Astronomical Twilight 4:52 AM MDT 9:18 PM MDT
Moon 12:09 AM MDT (4/30) 10:57 AM MDT (4/30)
Length of Visible Light 14h 18m
Length of Day
13h 26m
Waning Gibbous, 69% of the Moon is Illuminated
Apr 30
Waning Gibbous
May 2
Last Quarter
May 9
New
May 17
First Quarter
May 24
Full

Hourly Weather History & Observations

Time (MDT) Temp. Dew Point Humidity Pressure Visibility Wind Dir Wind Speed Gust Speed Precip Events Conditions
12:15 AM 67.3 °F 6.4 °F 9% 29.82 in 10.0 mi West 11.5 mph - N/A   Clear
12:35 AM 66.2 °F 6.6 °F 10% 29.83 in 10.0 mi West 11.5 mph - N/A   Clear
12:55 AM 66.4 °F 7.0 °F 10% 29.83 in 10.0 mi West 13.8 mph - N/A   Clear
1:35 AM 64.6 °F 7.0 °F 10% 29.83 in 10.0 mi West 13.8 mph - N/A   Clear
1:55 AM 63.7 °F 7.3 °F 11% 29.83 in 10.0 mi West 12.7 mph - N/A   Clear
2:15 AM 62.2 °F 7.0 °F 11% 29.82 in 10.0 mi West 11.5 mph - N/A   Clear
2:35 AM 60.8 °F 6.8 °F 12% 29.83 in 10.0 mi NW 6.9 mph 11.5 mph N/A   Clear
2:55 AM 62.1 °F 10.0 °F 13% 29.83 in 10.0 mi NW 10.4 mph - N/A   Clear
3:15 AM 67.3 °F 13.1 °F 12% 29.83 in 10.0 mi WNW 8.1 mph - N/A   Clear
3:35 AM 62.6 °F 10.6 °F 13% 29.83 in 10.0 mi West 9.2 mph - N/A   Clear
3:55 AM 65.7 °F 13.5 °F 13% 29.83 in 10.0 mi WNW 10.4 mph - N/A   Clear
4:15 AM 65.7 °F 13.3 °F 13% 29.84 in 10.0 mi NNW 5.8 mph - N/A   Clear
4:35 AM 62.6 °F 12.4 °F 14% 29.84 in 10.0 mi NW 5.8 mph - N/A   Clear
4:55 AM 61.3 °F 12.0 °F 14% 29.83 in 10.0 mi WNW 6.9 mph - N/A   Clear
5:15 AM 57.7 °F 10.6 °F 15% 29.84 in 10.0 mi WNW 6.9 mph - N/A   Clear
5:35 AM 57.7 °F 11.1 °F 16% 29.84 in 10.0 mi NW 9.2 mph - N/A   Clear
5:55 AM 56.8 °F 10.6 °F 16% 29.84 in 10.0 mi NW 9.2 mph - N/A   Clear
6:15 AM 59.7 °F 11.8 °F 15% 29.86 in 10.0 mi West 15.0 mph - N/A   Clear
6:35 AM 61.2 °F 12.4 °F 15% 29.87 in 10.0 mi West 15.0 mph - N/A   Clear
6:55 AM 63.7 °F 13.5 °F 14% 29.88 in 10.0 mi West 12.7 mph - N/A   Clear
7:15 AM 64.9 °F 13.8 °F 14% 29.88 in 10.0 mi West 13.8 mph 19.6 mph N/A   Clear
7:35 AM 66.2 °F 14.4 °F 13% 29.88 in 10.0 mi WNW 5.8 mph - N/A   Clear
7:55 AM 66.4 °F 14.4 °F 13% 29.89 in 10.0 mi WNW 3.5 mph - N/A   Clear
8:15 AM 69.1 °F 15.3 °F 13% 29.90 in 10.0 mi NW 4.6 mph - N/A   Clear
8:35 AM 71.4 °F 15.8 °F 12% 29.90 in 10.0 mi NNW 4.6 mph - N/A   Clear
8:55 AM 74.1 °F 16.7 °F 11% 29.90 in 10.0 mi North 5.8 mph - N/A   Clear
9:15 AM 75.7 °F 16.9 °F 11% 29.90 in 10.0 mi North 4.6 mph - N/A   Clear
9:35 AM 76.8 °F 18.9 °F 11% 29.91 in 10.0 mi NE 3.5 mph - N/A   Clear
9:55 AM 78.1 °F 16.9 °F 10% 29.91 in 10.0 mi NE 4.6 mph - N/A   Clear
10:15 AM 78.8 °F 17.4 °F 10% 29.91 in 10.0 mi East 4.6 mph - N/A   Clear
10:35 AM 79.5 °F 17.6 °F 10% 29.91 in 10.0 mi Calm Calm - N/A   Clear
10:55 AM 80.8 °F 17.8 °F 10% 29.91 in 10.0 mi Calm Calm - N/A   Clear
11:15 AM 82.4 °F 17.8 °F 9% 29.90 in 10.0 mi SW 4.6 mph - N/A   Clear
11:35 AM 83.7 °F 17.1 °F 8% 29.90 in 10.0 mi SSE 3.5 mph - N/A   Clear
11:55 AM 84.9 °F 16.5 °F 8% 29.89 in 10.0 mi NNE 8.1 mph - N/A   Clear
12:15 PM 86.0 °F 16.2 °F 7% 29.88 in 10.0 mi Calm Calm - N/A   Clear
12:35 PM 87.3 °F 14.2 °F 7% 29.87 in 10.0 mi WSW 21.9 mph 26.5 mph N/A   Clear
12:55 PM 87.3 °F 13.1 °F 6% 29.87 in 10.0 mi Calm Calm - N/A   Clear
1:15 PM 89.1 °F 13.5 °F 6% 29.86 in 10.0 mi WSW 21.9 mph 34.5 mph N/A   Clear
1:35 PM 86.7 °F 12.6 °F 6% 29.86 in 10.0 mi SW 9.2 mph 21.9 mph N/A   Clear
1:55 PM 88.3 °F 13.3 °F 6% 29.85 in 10.0 mi WSW 13.8 mph 24.2 mph N/A   Clear
2:15 PM 89.1 °F 13.3 °F 6% 29.84 in 10.0 mi WSW 15.0 mph 23.0 mph N/A   Clear
2:35 PM 89.6 °F 12.6 °F 6% 29.84 in 10.0 mi WSW 9.2 mph 28.8 mph N/A   Clear
2:55 PM 88.5 °F 12.0 °F 6% 29.83 in 10.0 mi WNW 9.2 mph 23.0 mph N/A   Clear
3:15 PM 89.8 °F 12.2 °F 6% 29.83 in 10.0 mi WSW 13.8 mph 23.0 mph N/A   Clear
3:35 PM 89.2 °F 12.2 °F 6% 29.83 in 10.0 mi WSW 13.8 mph 28.8 mph N/A   Clear
3:55 PM 89.2 °F 11.5 °F 6% 29.82 in 10.0 mi WSW 24.2 mph 29.9 mph N/A   Clear
4:15 PM 88.7 °F 11.3 °F 6% 29.82 in 10.0 mi SW 23.0 mph 29.9 mph N/A   Clear
4:35 PM 88.3 °F 11.1 °F 6% 29.82 in 10.0 mi West 24.2 mph 29.9 mph N/A   Clear
4:55 PM 87.8 °F 10.9 °F 6% 29.82 in 10.0 mi WSW 19.6 mph 25.3 mph N/A   Clear
5:15 PM 87.8 °F 11.3 °F 6% 29.82 in 10.0 mi WSW 16.1 mph 27.6 mph N/A   Clear
5:35 PM 86.9 °F 10.9 °F 6% 29.82 in 10.0 mi WSW 19.6 mph 27.6 mph N/A   Clear
5:55 PM 86.7 °F 11.8 °F 6% 29.82 in 10.0 mi West 20.7 mph 26.5 mph N/A   Clear
6:15 PM 85.6 °F 12.0 °F 6% 29.82 in 10.0 mi West 21.9 mph 28.8 mph N/A   Clear
6:35 PM 85.1 °F 12.7 °F 7% 29.82 in 10.0 mi West 18.4 mph 28.8 mph N/A   Clear
6:55 PM 84.4 °F 12.7 °F 7% 29.82 in 10.0 mi West 20.7 mph 32.2 mph N/A   Clear
7:15 PM 83.3 °F 12.7 °F 7% 29.82 in 10.0 mi West 23.0 mph 29.9 mph N/A   Clear
7:35 PM 82.2 °F 12.7 °F 7% 29.82 in 10.0 mi West 16.1 mph - N/A   Clear
7:55 PM 80.4 °F 11.5 °F 7% 29.83 in 10.0 mi West 12.7 mph - N/A   Clear
8:15 PM 79.0 °F 11.3 °F 8% 29.83 in 10.0 mi West 12.7 mph - N/A   Clear
8:35 PM 77.2 °F 11.1 °F 8% 29.83 in 10.0 mi West 10.4 mph - N/A   Clear
8:55 PM 77.7 °F 11.5 °F 8% 29.84 in 10.0 mi West 12.7 mph - N/A   Clear
9:15 PM 77.0 °F 11.7 °F 8% 29.84 in 10.0 mi West 12.7 mph - N/A   Clear
9:35 PM 76.5 °F 11.3 °F 8% 29.85 in 10.0 mi West 11.5 mph - N/A   Clear
9:55 PM 75.4 °F 11.1 °F 9% 29.86 in 10.0 mi WNW 9.2 mph - N/A   Clear
10:15 PM 70.9 °F 10.0 °F 10% 29.86 in 10.0 mi West 6.9 mph - N/A   Clear
10:35 PM 68.2 °F 9.1 °F 10% 29.87 in 10.0 mi West 9.2 mph - N/A   Clear
10:55 PM 68.0 °F 10.0 °F 11% 29.87 in 10.0 mi West 10.4 mph - N/A   Clear
11:15 PM 68.5 °F 10.2 °F 10% 29.87 in 10.0 mi West 8.1 mph - N/A   Clear
11:35 PM 66.2 °F 9.3 °F 11% 29.87 in 10.0 mi West 9.2 mph - N/A   Clear
11:55 PM 65.1 °F 9.3 °F 11% 29.87 in 10.0 mi West 6.9 mph - N/A   Clear